ABW508 USSS-UACC

Flight info

Callsign ABW508
Flight time 1h 19m
Altitude 37000
Route ASLIM6K ASLIM T762 BASAB N170 KOLUR
Aircraft A343/H-SDE2E3FGHIJ4J5M1RWXY/LB1D1

Departure

Time 2026-04-26 11:52
Airport Koltsovo Airport (USSS)

Arrival

Time 2026-04-26 13:12
Airport Nursultan Nazarbayev International Airport (UACC)
Time Latitude Longitude Altitude Speed Heading
2026-04-26 11:00 56.74755 60.78427 749 ft 0 kts 360°
2026-04-26 11:42 56.74825 60.78414 747 ft 5 kts 338°
2026-04-26 11:43 56.74849 60.78366 747 ft 6 kts 302°
2026-04-26 11:43 56.74859 60.78285 745 ft 7 kts 272°
2026-04-26 11:43 56.74847 60.78193 745 ft 8 kts 235°
2026-04-26 11:43 56.74796 60.78153 745 ft 9 kts 188°
2026-04-26 11:44 56.74730 60.78148 746 ft 10 kts 180°
2026-04-26 11:44 56.74671 60.78205 745 ft 10 kts 118°
2026-04-26 11:44 56.74663 60.78334 748 ft 11 kts 91°
2026-04-26 11:44 56.74663 60.78473 749 ft 11 kts 90°
2026-04-26 11:45 56.74663 60.78630 750 ft 14 kts 90°
2026-04-26 11:45 56.74662 60.78823 751 ft 17 kts 90°
2026-04-26 11:45 56.74662 60.79064 753 ft 21 kts 90°
2026-04-26 11:45 56.74661 60.79329 755 ft 21 kts 90°
2026-04-26 11:46 56.74662 60.79585 757 ft 20 kts 90°
2026-04-26 11:46 56.74662 60.79831 758 ft 19 kts 90°
2026-04-26 11:46 56.74661 60.80071 760 ft 19 kts 90°
2026-04-26 11:46 56.74661 60.80303 758 ft 18 kts 90°
2026-04-26 11:47 56.74661 60.80527 763 ft 17 kts 90°
2026-04-26 11:47 56.74660 60.80742 764 ft 17 kts 90°
2026-04-26 11:47 56.74659 60.80956 765 ft 17 kts 90°
2026-04-26 11:47 56.74659 60.81163 767 ft 16 kts 89°
2026-04-26 11:48 56.74660 60.81366 768 ft 16 kts 89°
2026-04-26 11:48 56.74661 60.81562 769 ft 15 kts 90°
2026-04-26 11:48 56.74660 60.81755 770 ft 15 kts 90°
2026-04-26 11:48 56.74659 60.81943 772 ft 15 kts 91°
2026-04-26 11:49 56.74656 60.82122 773 ft 14 kts 101°
2026-04-26 11:49 56.74584 60.82197 774 ft 12 kts 175°
2026-04-26 11:49 56.74503 60.82201 776 ft 11 kts 180°
2026-04-26 11:49 56.74425 60.82197 775 ft 12 kts 183°
2026-04-26 11:50 56.74332 60.82185 773 ft 14 kts 184°
2026-04-26 11:50 56.74234 60.82173 772 ft 15 kts 184°
2026-04-26 11:50 56.74128 60.82159 771 ft 15 kts 184°
2026-04-26 11:50 56.74075 60.82106 770 ft 8 kts 245°
2026-04-26 11:51 56.74069 60.81999 769 ft 9 kts 269°
2026-04-26 11:51 56.74071 60.81874 768 ft 16 kts 273°
2026-04-26 11:51 56.74098 60.81232 768 ft 87 kts 275°
2026-04-26 11:51 56.74159 60.79710 754 ft 150 kts 272°
2026-04-26 11:52 56.74223 60.77593 1032 ft 182 kts 276°
2026-04-26 11:52 56.74273 60.75998 1345 ft 198 kts 274°
2026-04-26 11:52 56.74362 60.72377 2133 ft 225 kts 268°
2026-04-26 11:52 56.73820 60.69744 2768 ft 223 kts 232°
2026-04-26 11:53 56.72464 60.68556 3287 ft 227 kts 185°
2026-04-26 11:53 56.70973 60.69617 3769 ft 243 kts 138°
2026-04-26 11:53 56.70166 60.72361 4211 ft 253 kts 112°
2026-04-26 11:54 56.68809 60.78497 4476 ft 263 kts 114°
2026-04-26 11:54 56.68122 60.81547 4616 ft 263 kts 114°
2026-04-26 11:54 56.67428 60.84627 4754 ft 263 kts 114°
2026-04-26 11:54 56.66740 60.87683 4900 ft 263 kts 114°
2026-04-26 11:55 56.66046 60.90770 5042 ft 264 kts 114°
2026-04-26 11:55 56.65352 60.93862 5189 ft 265 kts 114°
2026-04-26 11:55 56.64646 60.96999 5351 ft 274 kts 114°
2026-04-26 11:55 56.63912 61.00249 5600 ft 283 kts 114°
2026-04-26 11:56 56.63163 61.03562 5862 ft 284 kts 114°
2026-04-26 11:56 56.62413 61.06884 6130 ft 284 kts 114°
2026-04-26 11:56 56.61639 61.10155 6350 ft 284 kts 122°
2026-04-26 11:56 56.60423 61.12934 6560 ft 278 kts 142°
2026-04-26 11:57 56.58829 61.14885 6776 ft 276 kts 153°
2026-04-26 11:57 56.57191 61.16644 6978 ft 277 kts 153°
2026-04-26 11:57 56.55525 61.18431 7211 ft 278 kts 153°
2026-04-26 11:57 56.53851 61.20226 7424 ft 279 kts 153°
2026-04-26 11:58 56.52171 61.22028 7667 ft 280 kts 153°
2026-04-26 11:58 56.50488 61.23830 7891 ft 281 kts 153°
2026-04-26 11:58 56.48824 61.25609 8122 ft 281 kts 153°
2026-04-26 11:58 56.47132 61.27416 8353 ft 282 kts 153°
2026-04-26 11:59 56.45431 61.29230 8612 ft 285 kts 153°
2026-04-26 11:59 56.43706 61.31064 8897 ft 290 kts 153°
2026-04-26 11:59 56.41961 61.32916 9192 ft 290 kts 153°
2026-04-26 11:59 56.40236 61.34748 9496 ft 291 kts 153°
2026-04-26 12:00 56.38482 61.36608 9787 ft 292 kts 153°
2026-04-26 12:00 56.36708 61.38487 10076 ft 301 kts 153°
2026-04-26 12:00 56.34865 61.40423 10442 ft 317 kts 153°
2026-04-26 12:00 56.32906 61.42466 10876 ft 330 kts 153°
2026-04-26 12:01 56.30876 61.44573 11329 ft 342 kts 153°
2026-04-26 12:01 56.28774 61.46744 11804 ft 352 kts 153°
2026-04-26 12:01 56.26619 61.48961 12310 ft 361 kts 153°
2026-04-26 12:01 56.24436 61.51200 12824 ft 369 kts 153°
2026-04-26 12:02 56.22182 61.53508 13362 ft 372 kts 153°
2026-04-26 12:02 56.20689 61.55036 13713 ft 374 kts 153°
2026-04-26 12:02 56.17643 61.58145 14359 ft 378 kts 153°
2026-04-26 12:02 56.15364 61.60469 14855 ft 382 kts 153°
2026-04-26 12:03 56.13032 61.62843 15365 ft 387 kts 153°
2026-04-26 12:03 56.10676 61.65235 15892 ft 391 kts 154°
2026-04-26 12:03 56.08290 61.67653 16428 ft 396 kts 154°
2026-04-26 12:03 56.05903 61.70069 16967 ft 400 kts 154°
2026-04-26 12:04 56.03738 61.73254 17142 ft 416 kts 128°
2026-04-26 12:04 56.02529 61.77942 17027 ft 415 kts 104°
2026-04-26 12:04 56.01848 61.82968 17019 ft 416 kts 103°
2026-04-26 12:04 56.01173 61.88005 17032 ft 416 kts 103°
2026-04-26 12:05 56.00498 61.93049 17041 ft 416 kts 103°
2026-04-26 12:05 55.99829 61.98044 17058 ft 417 kts 103°
2026-04-26 12:05 55.99155 62.03087 17092 ft 417 kts 103°
2026-04-26 12:05 55.98485 62.08096 17110 ft 417 kts 103°
2026-04-26 12:06 55.97808 62.13163 17285 ft 422 kts 103°
2026-04-26 12:06 55.97138 62.18303 17944 ft 424 kts 102°
2026-04-26 12:06 55.96554 62.23434 18497 ft 427 kts 100°
2026-04-26 12:06 55.95990 62.28678 19024 ft 431 kts 100°
2026-04-26 12:07 55.95413 62.33957 19558 ft 434 kts 101°
2026-04-26 12:07 55.94809 62.39257 20086 ft 438 kts 101°
2026-04-26 12:07 55.94176 62.44609 20550 ft 442 kts 102°
2026-04-26 12:07 55.93519 62.50000 21053 ft 446 kts 102°
2026-04-26 12:08 55.92853 62.55363 21491 ft 450 kts 102°
2026-04-26 12:08 55.92167 62.60844 21964 ft 454 kts 102°
2026-04-26 12:08 55.91470 62.66372 22432 ft 457 kts 102°
2026-04-26 12:08 55.90767 62.71933 22890 ft 461 kts 103°
2026-04-26 12:09 55.90064 62.77483 23339 ft 465 kts 103°
2026-04-26 12:09 55.89346 62.83135 23715 ft 468 kts 103°
2026-04-26 12:09 55.88623 62.88812 24117 ft 470 kts 103°
2026-04-26 12:09 55.87892 62.94528 24507 ft 473 kts 103°
2026-04-26 12:10 55.87167 63.00179 24890 ft 475 kts 103°
2026-04-26 12:10 55.86425 63.05936 25264 ft 477 kts 103°
2026-04-26 12:10 55.85678 63.11710 25665 ft 479 kts 103°
2026-04-26 12:10 55.84924 63.17518 25968 ft 483 kts 103°
2026-04-26 12:11 55.84161 63.23361 26309 ft 486 kts 104°
2026-04-26 12:11 55.83391 63.29244 26678 ft 488 kts 104°
2026-04-26 12:11 55.82625 63.35072 27007 ft 490 kts 104°
2026-04-26 12:11 55.81844 63.40987 27337 ft 492 kts 104°
2026-04-26 12:12 55.81054 63.46947 27686 ft 494 kts 104°
2026-04-26 12:12 55.80272 63.52827 28011 ft 496 kts 104°
2026-04-26 12:12 55.79469 63.58837 28342 ft 498 kts 104°
2026-04-26 12:12 55.78934 63.62824 28540 ft 500 kts 104°
2026-04-26 12:13 55.77856 63.70829 28952 ft 502 kts 105°
2026-04-26 12:13 55.76831 63.76772 29255 ft 502 kts 114°
2026-04-26 12:13 55.75381 63.82426 29578 ft 502 kts 119°
2026-04-26 12:13 55.73788 63.87982 29897 ft 503 kts 121°
2026-04-26 12:14 55.72154 63.93405 30134 ft 505 kts 121°
2026-04-26 12:14 55.70461 63.98893 30371 ft 506 kts 122°
2026-04-26 12:14 55.68755 64.04372 30593 ft 508 kts 122°
2026-04-26 12:14 55.67068 64.09788 30894 ft 507 kts 122°
2026-04-26 12:15 55.65366 64.15259 31260 ft 506 kts 122°
2026-04-26 12:15 55.63669 64.20723 31568 ft 505 kts 122°
2026-04-26 12:15 55.61977 64.26174 31874 ft 505 kts 122°
2026-04-26 12:15 55.60288 64.31611 32171 ft 504 kts 122°
2026-04-26 12:16 55.58593 64.37057 32478 ft 504 kts 122°
2026-04-26 12:16 55.56925 64.42409 32769 ft 503 kts 122°
2026-04-26 12:16 55.55233 64.47824 33078 ft 502 kts 122°
2026-04-26 12:16 55.53543 64.53235 33367 ft 502 kts 122°
2026-04-26 12:17 55.51847 64.58642 33630 ft 501 kts 122°
2026-04-26 12:17 55.50157 64.64010 33939 ft 500 kts 122°
2026-04-26 12:17 55.48482 64.69319 34165 ft 500 kts 122°
2026-04-26 12:17 55.46786 64.74689 34348 ft 500 kts 122°
2026-04-26 12:18 55.45089 64.80053 34563 ft 500 kts 123°
2026-04-26 12:18 55.43386 64.85408 34821 ft 498 kts 123°
2026-04-26 12:18 55.41708 64.90670 35031 ft 498 kts 123°
2026-04-26 12:18 55.40004 64.95997 35220 ft 499 kts 123°
2026-04-26 12:19 55.38874 64.99523 35343 ft 499 kts 123°
2026-04-26 12:19 55.37169 65.04841 35535 ft 499 kts 123°
2026-04-26 12:19 55.35459 65.10162 35712 ft 499 kts 123°
2026-04-26 12:19 55.33752 65.15465 35885 ft 499 kts 123°
2026-04-26 12:20 55.32040 65.20775 36065 ft 499 kts 123°
2026-04-26 12:20 55.30321 65.26092 36234 ft 499 kts 123°
2026-04-26 12:20 55.28604 65.31393 36419 ft 499 kts 123°
2026-04-26 12:20 55.26905 65.36624 36585 ft 499 kts 123°
2026-04-26 12:21 55.25180 65.41927 36770 ft 499 kts 123°
2026-04-26 12:21 55.23451 65.47227 36874 ft 501 kts 123°
2026-04-26 12:21 55.21710 65.52549 36881 ft 505 kts 123°
2026-04-26 12:22 55.18199 65.63249 36846 ft 513 kts 123°
2026-04-26 12:22 55.14610 65.74146 36883 ft 520 kts 123°
2026-04-26 12:23 55.10988 65.85109 36879 ft 522 kts 123°
2026-04-26 12:23 55.07358 65.96051 36886 ft 522 kts 124°
2026-04-26 12:24 55.03695 66.07039 36886 ft 522 kts 124°
2026-04-26 12:24 55.00049 66.17923 36879 ft 522 kts 124°
2026-04-26 12:25 54.94527 66.34311 36887 ft 522 kts 124°
2026-04-26 12:25 54.90853 66.45158 36889 ft 522 kts 124°
2026-04-26 12:26 54.87150 66.56041 36887 ft 522 kts 124°
2026-04-26 12:26 54.83462 66.66830 36863 ft 521 kts 124°
2026-04-26 12:27 54.79746 66.77654 36896 ft 521 kts 124°
2026-04-26 12:27 54.75612 66.87880 36895 ft 516 kts 133°
2026-04-26 12:28 54.71025 66.97319 36892 ft 515 kts 135°
2026-04-26 12:28 54.66326 67.06664 36880 ft 514 kts 135°
2026-04-26 12:29 54.61638 67.15946 36894 ft 514 kts 135°
2026-04-26 12:30 54.59283 67.20610 36895 ft 514 kts 135°
2026-04-26 12:30 54.49582 67.39790 36884 ft 514 kts 135°
2026-04-26 12:31 54.42511 67.53683 36883 ft 514 kts 135°
2026-04-26 12:31 54.37817 67.62861 36884 ft 514 kts 135°
2026-04-26 12:32 54.33110 67.72037 36883 ft 514 kts 135°
2026-04-26 12:33 54.25993 67.85842 36859 ft 514 kts 136°
2026-04-26 12:33 54.21279 67.94944 36874 ft 513 kts 136°
2026-04-26 12:34 54.16561 68.04019 36874 ft 513 kts 136°
2026-04-26 12:34 54.11809 68.13126 36875 ft 513 kts 136°
2026-04-26 12:35 54.07061 68.22190 36875 ft 513 kts 136°
2026-04-26 12:35 54.02330 68.31190 36875 ft 512 kts 136°
2026-04-26 12:36 53.97563 68.40226 36881 ft 512 kts 136°
2026-04-26 12:36 53.92822 68.49177 36884 ft 512 kts 136°
2026-04-26 12:37 53.88050 68.58155 36869 ft 510 kts 136°
2026-04-26 12:37 53.83310 68.67041 36878 ft 510 kts 136°
2026-04-26 12:38 53.78562 68.76052 36877 ft 511 kts 135°
2026-04-26 12:38 53.73993 68.85224 36873 ft 512 kts 134°
2026-04-26 12:39 53.69443 68.94398 36871 ft 512 kts 134°
2026-04-26 12:39 53.64835 69.03578 36853 ft 511 kts 135°
2026-04-26 12:40 53.60219 69.12691 36876 ft 511 kts 135°
2026-04-26 12:40 53.55591 69.21782 36875 ft 511 kts 135°
2026-04-26 12:41 53.50972 69.30825 36875 ft 511 kts 135°
2026-04-26 12:41 53.46358 69.39827 36864 ft 511 kts 135°
2026-04-26 12:42 53.41700 69.48886 36885 ft 511 kts 135°
2026-04-26 12:42 53.37012 69.57721 36881 ft 506 kts 141°
2026-04-26 12:43 53.31378 69.64483 36884 ft 493 kts 157°
2026-04-26 12:43 53.25269 69.69493 36861 ft 491 kts 160°
2026-04-26 12:44 53.19055 69.74208 36884 ft 490 kts 161°
2026-04-26 12:44 53.12837 69.78910 36886 ft 490 kts 160°
2026-04-26 12:45 53.06629 69.83645 36890 ft 490 kts 160°
2026-04-26 12:45 53.00425 69.88391 36885 ft 489 kts 160°
2026-04-26 12:46 52.94236 69.93115 36897 ft 490 kts 160°
2026-04-26 12:46 52.88079 69.97796 36897 ft 489 kts 160°
2026-04-26 12:47 52.81872 70.02499 36908 ft 489 kts 160°
2026-04-26 12:47 52.75688 70.07171 36913 ft 488 kts 160°
2026-04-26 12:48 52.69506 70.11825 36914 ft 488 kts 160°
2026-04-26 12:48 52.63386 70.16577 36918 ft 489 kts 159°
2026-04-26 12:49 52.57348 70.21514 36265 ft 481 kts 159°
2026-04-26 12:49 52.54348 70.23968 35638 ft 481 kts 159°
2026-04-26 12:49 52.51338 70.26412 35152 ft 481 kts 159°
2026-04-26 12:49 52.48361 70.28814 34710 ft 480 kts 159°
2026-04-26 12:50 52.45360 70.31225 34242 ft 480 kts 160°
2026-04-26 12:50 52.42335 70.33642 34042 ft 486 kts 160°
2026-04-26 12:50 52.39282 70.36076 34169 ft 487 kts 160°
2026-04-26 12:50 52.36263 70.38483 34372 ft 487 kts 159°
2026-04-26 12:51 52.33211 70.40914 34558 ft 487 kts 159°
2026-04-26 12:51 52.30154 70.43346 34765 ft 487 kts 159°
2026-04-26 12:51 52.27099 70.45773 34946 ft 487 kts 159°
2026-04-26 12:51 52.24050 70.48191 35140 ft 487 kts 159°
2026-04-26 12:52 52.22032 70.49790 35265 ft 487 kts 159°
2026-04-26 12:52 52.17976 70.52996 35518 ft 487 kts 159°
2026-04-26 12:52 52.14926 70.55403 35705 ft 487 kts 159°
2026-04-26 12:53 52.09856 70.59400 35743 ft 480 kts 159°
2026-04-26 12:53 52.05882 70.62530 34998 ft 477 kts 159°
2026-04-26 12:53 52.03902 70.64270 34554 ft 481 kts 153°
2026-04-26 12:53 52.01247 70.67557 33909 ft 491 kts 141°
2026-04-26 12:54 51.99067 70.71911 33111 ft 503 kts 126°
2026-04-26 12:54 51.97620 70.77100 32291 ft 515 kts 111°
2026-04-26 12:54 51.96998 70.82896 31458 ft 527 kts 96°
2026-04-26 12:54 51.97278 70.88875 30586 ft 536 kts 81°
2026-04-26 12:55 51.98459 70.94638 29670 ft 542 kts 65°
2026-04-26 12:55 52.00318 70.99880 28798 ft 541 kts 61°
2026-04-26 12:55 52.01722 71.05508 28034 ft 533 kts 78°
2026-04-26 12:55 52.02213 71.11407 27309 ft 523 kts 94°
2026-04-26 12:56 52.01798 71.17197 26618 ft 510 kts 109°
2026-04-26 12:56 52.00544 71.22411 25987 ft 495 kts 124°
2026-04-26 12:56 51.98531 71.26840 25341 ft 478 kts 141°
2026-04-26 12:56 51.95995 71.30034 24829 ft 458 kts 157°
2026-04-26 12:57 51.93137 71.31949 24036 ft 425 kts 172°
2026-04-26 12:57 51.90321 71.32496 22503 ft 403 kts 188°
2026-04-26 12:57 51.87624 71.31638 20654 ft 390 kts 206°
2026-04-26 12:58 51.82615 71.28456 17395 ft 380 kts 204°
2026-04-26 12:58 51.80165 71.27076 15774 ft 374 kts 201°
2026-04-26 12:58 51.77616 71.26257 14197 ft 375 kts 189°
2026-04-26 12:58 51.74985 71.26422 12936 ft 383 kts 176°
2026-04-26 12:59 51.72354 71.27330 12375 ft 383 kts 169°
2026-04-26 12:59 51.69839 71.28625 12096 ft 374 kts 165°
2026-04-26 12:59 51.67508 71.30062 11889 ft 349 kts 163°
2026-04-26 12:59 51.65359 71.31517 11756 ft 323 kts 162°
2026-04-26 13:00 51.63258 71.32988 11659 ft 336 kts 161°
2026-04-26 13:00 51.61133 71.34521 11535 ft 336 kts 160°
2026-04-26 13:00 51.59004 71.36104 11171 ft 336 kts 160°
2026-04-26 13:00 51.56877 71.37695 10816 ft 335 kts 160°
2026-04-26 13:01 51.54788 71.39268 10685 ft 326 kts 160°
2026-04-26 13:01 51.52786 71.40780 10551 ft 317 kts 160°
2026-04-26 13:01 51.50810 71.42273 10407 ft 309 kts 160°
2026-04-26 13:01 51.48883 71.43734 10217 ft 304 kts 159°
2026-04-26 13:02 51.46982 71.45174 9983 ft 301 kts 159°
2026-04-26 13:02 51.45080 71.46601 9659 ft 300 kts 159°
2026-04-26 13:02 51.43189 71.48020 9335 ft 299 kts 159°
2026-04-26 13:02 51.41326 71.49419 9015 ft 299 kts 159°
2026-04-26 13:03 51.39444 71.50832 8684 ft 298 kts 159°
2026-04-26 13:03 51.37565 71.52244 8382 ft 297 kts 159°
2026-04-26 13:03 51.35760 71.53794 8057 ft 300 kts 148°
2026-04-26 13:03 51.34161 71.55975 7752 ft 302 kts 140°
2026-04-26 13:04 51.32653 71.58313 7448 ft 301 kts 139°
2026-04-26 13:04 51.31164 71.60652 7039 ft 297 kts 139°
2026-04-26 13:04 51.29696 71.62947 6522 ft 290 kts 139°
2026-04-26 13:04 51.28307 71.65114 6278 ft 272 kts 139°
2026-04-26 13:05 51.26985 71.67216 6158 ft 269 kts 138°
2026-04-26 13:05 51.25660 71.69355 6024 ft 271 kts 138°
2026-04-26 13:05 51.24335 71.71497 5778 ft 270 kts 137°
2026-04-26 13:05 51.22898 71.73413 5486 ft 266 kts 157°
2026-04-26 13:06 51.21199 71.73996 5238 ft 246 kts 192°
2026-04-26 13:06 51.19602 71.73253 5190 ft 236 kts 214°
2026-04-26 13:06 51.18288 71.71770 5183 ft 228 kts 229°
2026-04-26 13:06 51.17192 71.70039 5098 ft 217 kts 232°
2026-04-26 13:07 51.16158 71.68388 4852 ft 206 kts 230°
2026-04-26 13:07 51.15157 71.66832 4581 ft 194 kts 230°
2026-04-26 13:07 51.14223 71.65371 4270 ft 183 kts 231°
2026-04-26 13:07 51.13339 71.63980 3980 ft 174 kts 231°
2026-04-26 13:08 51.12501 71.62666 3740 ft 163 kts 231°
2026-04-26 13:08 51.11727 71.61452 3530 ft 150 kts 231°
2026-04-26 13:08 51.11027 71.60356 3325 ft 135 kts 232°
2026-04-26 13:08 51.10382 71.59343 3168 ft 128 kts 233°
2026-04-26 13:09 51.09744 71.58337 2989 ft 130 kts 232°
2026-04-26 13:09 51.09097 71.57321 2820 ft 131 kts 232°
2026-04-26 13:09 51.08446 71.56302 2647 ft 131 kts 232°
2026-04-26 13:09 51.07793 71.55279 2479 ft 132 kts 232°
2026-04-26 13:10 51.07149 71.54269 2293 ft 132 kts 231°
2026-04-26 13:10 51.06495 71.53245 2108 ft 131 kts 231°
2026-04-26 13:10 51.05846 71.52229 1907 ft 130 kts 230°
2026-04-26 13:10 51.05205 71.51227 1729 ft 129 kts 230°
2026-04-26 13:11 51.04568 71.50229 1536 ft 127 kts 230°
2026-04-26 13:11 51.03923 71.49226 1360 ft 132 kts 228°
2026-04-26 13:11 51.03267 71.48211 1183 ft 130 kts 227°
2026-04-26 13:11 51.02720 71.47345 1168 ft 88 kts 224°
2026-04-26 13:12 51.02406 71.46865 1169 ft 37 kts 224°
2026-04-26 13:12 51.02236 71.46600 1168 ft 32 kts 225°
2026-04-26 13:12 51.02089 71.46363 1166 ft 28 kts 226°
2026-04-26 13:12 51.01962 71.46162 1169 ft 24 kts 224°
2026-04-26 13:13 51.01850 71.45989 1170 ft 22 kts 224°
2026-04-26 13:13 51.01740 71.45818 1172 ft 22 kts 224°
2026-04-26 13:13 51.01718 71.45622 1169 ft 20 kts 307°
2026-04-26 13:13 51.01750 71.45565 1167 ft 0 kts 312°
2026-04-26 13:14 51.01755 71.45555 1167 ft 2 kts 312°
2026-04-26 13:14 51.01767 71.45535 1168 ft 3 kts 313°
2026-04-26 13:14 51.01787 71.45511 1168 ft 4 kts 329°
2026-04-26 13:14 51.01815 71.45502 1168 ft 4 kts
2026-04-26 13:15 51.01844 71.45525 1171 ft 5 kts 36°
2026-04-26 13:15 51.01873 71.45568 1170 ft 6 kts 44°
2026-04-26 13:15 51.01909 71.45622 1169 ft 8 kts 44°
2026-04-26 13:15 51.01955 71.45693 1167 ft 11 kts 44°
2026-04-26 13:16 51.02018 71.45791 1167 ft 14 kts 44°
2026-04-26 13:16 51.02097 71.45911 1168 ft 17 kts 44°
2026-04-26 13:16 51.02188 71.46053 1168 ft 20 kts 44°
2026-04-26 13:16 51.02281 71.46198 1170 ft 16 kts 43°
2026-04-26 13:17 51.02370 71.46062 1169 ft 13 kts 230°
2026-04-26 13:17 51.02317 71.45952 1167 ft 12 kts 257°
2026-04-26 13:18 51.02406 71.45749 1166 ft 12 kts 314°
2026-04-26 13:18 51.02458 71.45712 1166 ft 5 kts 17°
2026-04-26 13:18 51.02521 71.45805 1167 ft 7 kts 48°
2026-04-26 13:19 51.02530 71.45821 1167 ft 0 kts 50°